Theta_e
351 350 350 348 348 348 349 349 349 349 348 348 348 349 348 354 365 374 378 371 355 351 353 352 354 354 352 355 358 357 359 360 359 358 357 354 354 356 357 355 356 357 356 349 344 347 349 348 347 347 347 345 345 341 331 327 328 325 321 320 319 317 317 316 316 317 317 318 321 325 328 332 334 337
352 351 350 349 347 346 348 349 348 347 348 347 346 349 349 349 355 362 371 372 360 353 355 353 354 355 354 356 356 356 359 359 358 358 356 355 354 355 356 356 357 358 357 353 348 346 347 347 346 345 345 345 345 345 336 328 327 324 321 319 319 317 316 316 316 316 316 317 317 320 324 328 332 335
354 351 351 351 349 347 347 348 349 349 349 348 346 347 350 350 352 353 359 365 360 353 355 355 353 354 355 355 353 355 356 355 357 357 356 355 356 357 357 357 357 358 358 356 353 348 345 346 345 344 345 345 346 347 343 334 327 324 321 320 319 318 316 316 316 316 316 317 317 317 320 323 328 332
356 353 351 352 350 349 349 349 350 351 350 350 348 347 350 351 353 352 353 358 357 350 351 355 353 353 355 355 355 355 356 355 357 358 357 355 355 357 358 357 358 359 358 357 355 351 347 346 345 345 346 347 347 348 348 342 333 325 321 320 319 318 317 316 316 316 316 316 317 317 317 320 324 329
359 356 353 353 352 350 350 350 350 350 350 350 350 348 350 350 351 351 350 354 354 349 349 353 353 352 354 355 355 354 355 357 358 358 357 355 356 358 358 358 359 358 357 357 357 354 350 348 347 346 347 348 348 348 349 348 343 333 324 320 319 318 317 317 316 316 316 316 316 317 317 318 321 327
360 359 355 355 355 353 352 352 351 352 350 350 350 349 349 349 351 352 351 352 354 353 351 350 349 351 354 356 356 357 358 359 358 358 357 357 359 359 357 358 359 359 357 358 357 355 353 352 350 349 348 348 349 349 348 348 348 344 332 322 319 319 318 317 317 315 315 316 316 316 317 318 318 322
359 360 358 357 358 357 357 356 355 355 353 352 353 351 348 348 349 351 352 352 354 355 354 353 352 353 355 355 356 357 357 356 357 357 357 358 359 358 358 358 359 359 358 358 358 356 354 354 353 351 350 348 349 350 349 349 349 349 342 328 319 320 319 317 316 316 315 315 316 316 316 318 318 318
360 359 359 359 359 359 359 359 357 357 355 354 355 354 352 350 349 349 351 352 353 354 355 355 356 356 356 357 358 357 355 355 355 357 359 360 359 358 359 359 358 359 359 359 358 357 355 355 355 354 352 350 350 349 349 349 349 350 348 337 322 319 320 318 316 316 315 315 315 315 316 317 317 317
360 359 359 359 360 360 360 359 359 357 357 355 355 355 353 352 351 350 351 353 354 355 356 357 357 359 360 361 360 359 358 358 358 360 360 360 359 357 358 359 359 361 361 360 359 357 356 356 355 355 354 351 350 350 349 349 349 350 350 344 330 320 319 319 316 315 315 315 314 315 315 316 317 318
359 360 359 358 358 359 359 359 358 357 357 357 356 355 353 353 353 353 352 352 352 352 353 355 357 358 360 361 360 359 359 360 360 360 359 359 358 357 358 360 361 362 361 361 360 358 356 356 356 355 355 354 352 351 350 349 349 350 351 350 340 327 319 319 318 316 315 315 314 315 315 316 317 317
357 358 358 358 357 357 358 358 358 357 357 358 358 356 355 353 353 354 354 353 353 353 352 354 357 358 359 360 360 359 361 362 361 360 360 360 358 355 358 362 363 362 362 361 360 359 357 357 356 355 354 354 353 352 351 350 349 349 350 351 348 338 326 319 318 317 315 314 314 314 315 315 316 317
354 355 355 355 355 355 355 356 357 357 357 357 358 357 356 355 355 355 355 355 355 356 357 357 358 358 359 361 361 361 362 362 360 357 357 357 355 354 357 362 362 360 359 359 359 360 359 358 357 355 354 354 354 353 352 351 350 349 350 351 351 347 337 325 319 318 316 315 314 314 315 315 315 315
352 352 353 353 353 352 352 353 353 354 355 356 357 357 357 356 356 356 356 356 355 356 358 360 360 361 361 361 361 361 360 359 358 355 355 357 356 355 359 362 359 356 357 360 359 358 358 358 356 355 354 355 354 353 352 352 351 349 348 349 350 351 347 334 322 318 317 316 315 315 314 315 315 315
350 350 350 351 351 351 351 350 350 351 351 352 353 354 356 356 356 356 356 356 356 356 357 358 359 360 361 360 360 359 358 358 358 357 357 358 358 359 360 359 356 355 357 359 358 356 356 357 356 355 356 355 355 355 353 354 354 350 347 348 349 350 351 344 329 320 318 317 316 316 315 314 315 315
350 350 350 349 350 349 349 349 350 350 350 351 350 351 353 354 355 356 357 357 357 357 358 358 359 359 360 359 358 358 357 356 356 356 356 355 354 357 360 359 357 357 357 355 354 353 354 354 355 356 356 356 356 356 356 355 355 352 348 347 349 349 350 349 338 324 318 318 317 316 316 315 314 315
348 348 349 349 349 349 348 347 348 347 348 349 349 350 350 351 352 353 355 357 357 358 359 359 359 359 359 360 359 358 357 357 357 356 355 354 352 353 356 358 358 355 352 352 352 352 352 354 356 356 355 354 355 354 355 356 355 354 351 348 348 349 349 350 346 331 320 319 318 316 316 315 314 314
347 347 347 347 347 347 347 346 346 345 345 345 346 348 349 349 349 350 351 353 355 357 359 360 360 360 360 360 359 357 356 357 357 357 356 354 353 352 352 353 352 350 349 351 352 351 352 354 357 357 353 352 354 353 353 356 356 354 352 348 347 349 349 349 348 339 325 319 319 317 316 316 314 314
346 347 346 346 345 345 346 345 345 344 344 345 345 346 348 349 348 348 348 348 350 352 355 357 358 358 358 360 358 355 355 357 357 356 356 356 355 355 355 353 352 351 350 351 353 354 353 354 357 357 353 351 352 351 350 353 356 356 353 350 348 349 349 348 349 345 333 323 319 318 317 315 314 314
344 345 345 345 345 345 345 345 345 344 344 345 345 346 347 348 347 347 347 346 346 346 347 349 349 349 349 350 349 348 352 356 356 357 358 359 359 358 357 357 355 353 353 353 356 358 356 355 355 354 349 349 350 350 351 353 355 356 354 351 348 349 349 348 348 347 340 329 321 319 318 316 315 314
346 345 346 345 345 345 346 346 346 346 346 346 346 346 347 347 347 347 346 346 345 346 346 346 347 346 344 343 340 338 341 345 348 353 357 358 358 358 358 357 356 355 356 355 357 360 357 354 354 352 349 349 350 351 353 354 353 354 354 350 348 348 349 348 347 348 345 336 325 319 318 317 315 314
348 347 346 345 345 345 345 346 347 348 349 349 349 348 347 348 349 349 348 349 348 348 350 351 351 352 350 349 347 343 341 338 340 348 354 353 352 355 357 358 357 356 356 356 357 359 358 355 354 353 350 351 352 352 353 353 353 353 352 350 348 347 348 347 346 347 348 342 331 322 319 318 316 314
349 348 346 345 344 343 343 343 344 345 348 350 351 351 349 349 351 352 351 353 354 354 355 356 356 357 356 355 353 352 350 346 342 345 348 348 348 351 354 355 357 357 357 356 357 359 359 356 353 351 351 353 354 354 355 355 354 352 350 349 348 347 347 347 346 346 347 345 337 326 320 318 317 314
350 349 348 347 346 345 345 345 345 346 348 349 350 351 352 353 353 352 352 354 355 355 356 357 357 357 356 356 355 354 353 353 350 347 346 345 346 349 350 351 353 356 355 352 354 358 358 356 352 350 351 354 355 353 354 355 353 352 351 348 347 348 347 346 345 345 346 345 340 331 322 319 318 315
350 351 351 349 348 349 349 349 350 350 351 352 351 350 352 353 353 352 353 353 353 353 353 354 354 355 354 354 354 354 353 353 354 352 351 349 348 348 348 348 350 352 351 347 350 354 353 351 351 348 349 352 352 350 351 353 353 353 351 350 349 349 348 347 346 345 345 345 341 333 325 319 318 317
350 352 353 353 352 352 353 353 354 353 353 354 353 352 352 352 350 350 352 354 353 353 354 353 354 354 354 354 354 354 354 354 354 355 354 354 352 350 349 349 349 350 350 348 349 351 351 349 349 347 346 347 348 348 348 350 352 354 353 352 351 350 348 348 347 345 345 345 342 336 328 321 318 317
350 352 353 354 354 354 355 355 356 356 356 356 355 355 353 353 351 350 351 353 354 355 356 356 356 356 357 357 357 357 357 357 356 356 355 354 355 353 352 352 352 351 351 349 350 351 351 350 349 348 348 347 347 348 347 346 348 351 351 352 352 351 349 348 346 346 345 344 344 341 333 324 318 317
352 352 352 352 353 353 353 354 355 356 358 358 358 357 356 355 355 353 352 353 354 356 357 358 358 359 359 359 358 357 357 357 358 358 358 356 355 355 355 354 354 354 353 352 351 352 352 351 350 348 349 349 351 352 351 349 349 349 349 351 351 350 350 348 346 346 345 344 344 342 334 325 319 318
354 354 354 353 353 352 351 352 354 355 357 358 358 359 358 357 357 355 353 353 353 355 357 357 358 358 358 358 358 357 356 356 357 360 361 360 358 357 356 356 355 355 355 354 354 354 353 352 351 349 349 350 353 353 353 353 352 351 350 349 348 349 350 349 347 346 344 343 343 341 336 331 327 322
354 355 355 354 354 353 352 352 353 354 355 356 357 358 358 357 357 357 354 352 352 353 354 355 356 357 357 357 357 357 356 356 356 358 360 361 361 360 359 358 357 357 357 357 357 357 356 354 353 351 350 350 351 352 352 352 352 353 352 349 348 348 350 349 349 348 346 343 342 341 340 339 336 328
354 354 355 354 354 353 352 352 353 353 354 354 355 355 355 355 356 356 355 352 351 351 353 354 355 355 356 356 356 356 357 356 356 356 356 357 358 360 360 360 359 359 359 359 358 358 358 357 356 354 353 351 352 352 352 352 353 353 354 352 349 347 347 349 350 349 348 345 343 342 342 341 337 332
353 353 353 353 353 352 352 351 351 352 352 353 353 353 353 354 354 355 355 353 351 351 352 353 354 355 355 356 356 356 356 356 356 356 355 354 354 355 356 358 360 360 360 359 359 358 358 358 357 356 354 354 353 353 353 354 355 355 355 355 353 350 349 350 349 349 349 348 344 341 340 339 337 333
351 351 351 350 350 350 351 351 350 350 351 351 352 352 352 353 353 353 353 353 352 352 352 352 353 354 355 355 356 356 356 356 356 356 355 354 353 353 353 354 355 356 357 358 358 358 358 358 358 358 356 356 355 355 354 355 356 356 356 357 356 355 354 352 350 350 350 346 342 340 339 339 337 336
345 347 348 348 348 348 349 350 350 351 351 351 351 352 352 352 353 353 353 353 353 353 353 353 353 354 355 355 356 356 356 356 356 356 355 355 355 354 353 353 353 353 353 354 356 357 358 359 359 358 358 357 357 356 355 355 355 356 357 356 356 356 355 354 353 352 349 344 340 338 338 338 337 337
342 344 345 346 347 347 348 349 350 350 351 351 352 352 353 353 353 354 354 354 355 354 354 353 353 353 354 355 356 356 356 356 356 356 355 355 355 355 355 355 354 354 354 354 355 356 357 358 358 359 360 360 359 358 357 357 357 356 356 357 357 357 357 356 354 351 349 347 344 339 335 336 338 337
340 341 343 343 344 345 346 348 348 349 351 352 352 352 353 353 354 355 355 355 355 355 354 353 353 353 354 355 356 356 356 356 356 356 355 355 355 355 356 357 356 356 356 355 355 356 356 356 358 359 360 360 359 360 359 358 358 358 357 357 357 357 358 357 356 352 348 346 344 340 336 335 336 336
338 339 340 341 343 344 345 346 347 349 350 351 353 353 354 355 355 356 356 356 356 356 355 354 353 353 353 354 355 355 355 355 355 355 355 355 355 355 356 357 357 357 357 357 357 357 357 357 357 358 358 358 359 360 360 359 359 359 358 358 358 357 358 358 357 354 349 344 342 340 337 336 335 335
338 339 339 339 341 343 345 346 347 349 350 351 352 353 353 354 354 355 356 357 357 356 356 355 355 355 354 354 354 354 354 354 354 354 355 355 355 355 355 356 356 356 357 358 358 358 358 358 358 357 357 358 360 360 359 358 358 359 358 358 358 358 358 358 357 354 350 346 343 341 341 339 337 337
338 338 338 338 339 341 343 345 346 348 350 350 351 352 352 352 353 353 355 357 357 357 357 356 356 355 355 355 354 354 354 354 354 354 354 354 355 356 355 356 356 356 357 358 358 359 359 359 359 358 357 357 359 360 358 357 358 358 358 358 358 358 358 357 357 355 351 347 345 344 343 341 340 339
340 340 340 340 340 341 342 343 344 346 347 348 350 351 352 353 353 354 355 357 357 357 355 354 354 354 355 355 355 355 355 355 354 355 355 355 354 354 354 354 355 355 355 355 356 357 358 357 358 357 355 355 357 357 356 355 355 357 357 357 357 358 358 357 357 356 352 349 347 344 341 339 339 338
341 342 342 342 342 343 343 343 344 345 346 348 349 350 351 352 353 354 356 356 356 356 354 353 352 353 354 355 356 356 356 355 354 353 353 352 351 351 351 352 352 352 351 351 352 354 355 355 356 356 355 354 355 354 353 352 353 355 356 356 356 357 357 358 357 356 354 352 350 344 339 336 335 334
342 343 344 344 344 345 345 345 346 346 347 348 350 350 351 352 353 353 354 355 355 355 354 353 353 354 355 356 356 354 353 351 350 350 350 351 352 352 352 351 350 350 350 350 350 352 353 353 354 355 354 354 354 353 352 351 351 353 356 356 356 356 356 357 357 356 355 354 350 344 340 337 335 333
341 341 341 342 343 344 345 346 347 347 348 349 350 351 352 352 353 354 354 354 354 354 354 353 353 353 354 355 353 350 348 347 349 350 351 351 352 352 350 350 349 350 350 350 350 352 352 352 352 352 352 352 352 352 352 351 351 353 355 354 355 355 356 356 357 356 356 354 351 346 341 337 334 332
338 339 340 341 343 345 346 348 348 349 350 351 351 352 353 353 353 354 355 355 355 354 354 353 353 353 353 354 353 351 350 350 349 349 349 350 351 351 350 351 351 351 351 351 351 352 352 351 351 351 351 351 352 352 351 350 351 353 353 352 352 353 353 355 356 357 356 355 352 351 348 343 340 338
337 339 341 341 342 343 345 346 347 347 347 348 348 349 350 351 352 353 352 352 353 352 353 353 353 354 354 355 354 354 355 355 354 351 350 351 352 352 352 352 352 352 352 352 352 352 352 351 352 351 351 352 353 352 350 350 350 350 350 350 351 351 351 352 354 355 356 355 352 350 349 347 346 346
334 335 335 335 335 335 336 338 338 339 339 340 341 342 343 346 347 347 347 349 349 350 350 351 352 352 353 354 354 354 356 357 356 354 352 352 352 352 352 353 353 352 353 352 352 352 352 352 352 352 352 352 352 352 351 350 349 348 348 348 348 349 349 349 349 351 353 352 350 349 348 345 344 344
Wind_Speed
9 9 8 9 10 10 6 3 5 2 3 2 1 1 3 2 1 1 2 4 3 5 4 4 5 2 2 1 2 1 2 5 5 7 11 10 8 8 9 10 10 9 9 11 12 10 7 7 5 5 6 8 10 11 11 10 9 10 12 12 13 13 13 12 11 11 9 7 5 4 4 4 4 5
10 10 9 9 9 10 8 3 2 2 2 2 3 3 2 1 2 3 2 2 3 4 7 4 0 2 1 1 1 1 3 4 5 8 10 9 8 9 10 10 9 9 7 8 10 9 7 6 5 5 5 7 9 10 11 10 9 10 11 12 12 13 13 12 12 11 10 9 6 4 4 4 4 4
11 10 9 9 9 8 8 6 4 5 4 4 5 5 3 2 3 3 2 0 3 5 6 7 4 4 4 3 3 2 2 3 6 7 7 9 9 9 10 11 10 9 7 6 8 8 7 6 6 5 5 5 7 8 10 11 10 10 10 11 12 12 12 12 12 12 11 10 8 5 3 3 3 4
11 11 9 9 9 9 8 9 7 6 4 4 5 6 5 3 4 4 2 3 6 9 7 6 5 5 7 5 3 4 5 4 5 6 6 9 11 11 13 13 12 10 8 6 6 7 6 6 6 6 5 5 6 7 8 10 10 10 10 10 11 11 12 12 12 12 11 10 9 7 4 2 2 3
11 12 12 10 10 11 11 12 11 9 7 6 5 6 6 6 7 8 6 6 9 11 8 7 8 7 8 6 4 6 7 5 5 6 8 10 10 11 13 13 12 10 9 7 6 5 5 5 6 6 5 5 5 6 7 9 10 10 10 10 11 11 11 11 11 11 10 9 8 8 5 3 1 2
12 10 12 12 11 11 12 12 12 12 10 9 8 10 11 10 9 10 10 10 10 12 11 10 10 9 8 9 7 7 6 5 6 8 9 10 9 9 11 11 11 11 9 8 7 6 5 5 6 6 6 5 5 5 6 7 9 10 11 11 11 11 11 11 11 11 10 9 8 7 6 4 2 1
13 10 11 12 12 12 12 12 12 12 12 11 11 13 14 15 14 13 13 14 14 14 13 11 11 11 10 11 10 9 9 8 8 9 10 9 10 11 10 9 9 10 10 9 8 7 6 5 6 7 6 5 5 5 5 6 8 10 11 11 11 11 11 11 11 10 9 8 7 7 6 5 3 2
14 13 12 12 12 12 12 14 14 13 13 14 14 13 12 14 16 17 16 16 17 16 13 12 12 12 12 13 12 12 12 11 10 10 9 9 10 11 11 10 9 9 9 10 10 9 8 7 7 8 8 6 5 4 5 6 7 9 10 10 10 11 11 10 10 9 9 8 7 7 6 5 4 3
15 15 15 14 13 13 14 15 15 14 14 15 15 14 11 10 12 15 14 12 12 13 12 12 12 12 12 13 14 13 13 13 11 10 10 10 10 10 11 11 10 9 9 10 11 11 11 10 9 9 9 9 7 6 5 5 6 7 9 10 10 10 11 10 10 9 8 8 7 7 6 5 5 4
16 16 16 16 15 15 16 16 15 15 15 15 16 15 14 12 10 11 11 11 11 12 13 14 14 14 14 15 16 14 13 14 14 13 13 13 12 11 11 11 11 11 11 11 11 12 12 12 11 11 11 11 10 9 7 6 5 6 7 8 9 9 10 10 10 8 7 7 7 6 6 6 5 4
17 18 18 17 17 17 18 17 16 16 16 16 15 15 15 14 13 12 12 12 13 15 16 16 16 16 16 16 16 14 12 13 15 15 15 15 14 12 10 11 13 12 12 12 13 13 13 14 14 14 13 13 12 12 11 8 6 5 5 6 7 8 9 10 10 8 7 6 6 6 6 6 6 5
19 19 19 19 19 19 19 19 19 18 18 18 18 17 16 16 16 16 15 15 14 15 16 17 17 17 17 16 15 14 13 14 15 15 15 16 17 16 12 12 12 12 12 13 14 15 15 16 17 16 15 15 14 14 14 12 9 6 5 5 6 7 9 9 10 9 7 6 6 6 6 5 6 6
21 20 20 20 21 20 19 19 20 20 20 19 20 20 19 18 18 18 18 18 17 16 16 16 16 16 17 16 15 15 15 16 18 19 18 18 20 18 14 12 11 12 13 13 14 16 17 17 18 17 17 16 16 15 15 15 13 10 7 5 5 6 8 9 9 9 8 7 6 5 5 5 6 6
22 22 21 21 21 21 21 21 21 22 22 22 21 20 20 20 20 20 20 20 20 19 19 19 18 16 17 18 17 17 18 18 19 20 20 20 20 18 15 14 15 15 14 13 14 16 16 17 18 18 19 19 18 18 18 17 15 13 11 9 6 6 7 8 9 8 8 7 7 6 5 5 5 6
24 23 23 23 22 21 21 22 23 24 24 24 23 22 22 22 21 21 22 23 22 21 21 21 20 19 20 22 21 20 20 20 20 21 20 17 16 16 15 14 15 15 14 14 16 17 17 17 19 20 20 20 20 20 20 19 17 16 15 13 9 7 7 8 8 8 8 8 8 7 6 5 5 5
26 25 25 24 24 22 21 21 22 23 24 25 26 25 24 24 24 24 23 24 23 22 22 22 22 22 23 24 23 22 22 20 19 19 18 14 12 13 13 14 14 14 14 15 17 20 19 18 19 20 21 21 21 21 21 21 20 19 19 17 13 9 8 8 8 8 8 8 8 8 7 5 4 4
27 28 28 27 26 26 25 24 23 23 24 26 27 29 28 27 27 27 27 26 25 24 23 23 24 25 25 25 26 26 24 22 21 20 20 19 16 14 14 15 17 18 17 16 18 21 22 19 18 21 22 23 23 22 22 22 21 22 21 19 16 12 9 9 8 8 8 9 9 8 8 6 4 4
29 29 30 30 30 29 29 28 27 27 27 26 26 28 30 32 31 30 30 30 29 29 28 27 29 30 29 29 30 30 27 25 25 25 24 23 21 19 18 20 22 23 22 20 18 20 23 21 20 23 26 25 25 24 22 22 22 23 23 21 19 15 12 10 9 9 9 9 9 9 8 7 5 4
32 31 30 31 32 32 32 32 31 30 30 29 28 27 28 31 33 33 33 32 32 32 32 32 34 35 35 35 36 36 33 30 29 28 26 24 22 21 22 23 24 25 25 22 18 18 22 24 24 27 29 27 26 25 23 22 22 23 24 23 21 17 14 12 11 10 9 9 10 9 9 8 7 5
32 32 31 31 31 31 32 33 32 32 32 32 32 30 29 29 31 33 34 33 33 33 32 32 33 33 34 36 37 38 37 36 35 32 27 25 24 23 23 23 26 28 27 24 21 20 22 24 26 28 28 26 26 26 24 22 21 22 24 24 22 19 16 13 12 12 10 10 11 10 10 9 8 7
32 31 31 31 30 29 30 29 29 30 30 31 33 33 32 31 31 32 32 32 32 32 31 31 30 29 29 29 30 32 33 35 37 33 27 27 28 25 20 20 24 26 27 27 24 21 22 24 24 25 25 24 23 23 23 24 23 22 23 24 23 21 19 16 14 13 12 12 12 12 11 10 9 9
32 33 33 33 32 33 33 33 32 30 28 29 31 32 32 31 31 32 32 30 30 30 29 29 28 28 27 27 28 30 29 31 34 33 32 32 30 25 21 22 23 23 28 31 25 21 24 23 22 22 20 18 20 22 22 23 23 23 24 25 24 23 21 19 17 16 14 13 13 13 12 12 11 10
31 33 34 34 34 35 35 35 35 34 32 31 32 32 32 32 33 34 32 30 30 30 29 29 29 29 28 27 28 29 29 29 32 34 36 35 32 28 26 26 20 14 22 31 25 21 24 25 22 21 15 10 13 18 21 23 23 24 25 26 25 25 24 21 19 18 17 15 14 14 14 14 13 12
25 28 32 34 34 34 34 34 35 35 35 35 36 35 32 33 36 37 33 32 33 33 33 33 32 31 29 28 28 29 29 29 30 33 34 35 35 33 31 30 23 17 24 33 24 18 22 23 20 20 17 11 10 13 17 21 23 25 26 27 27 26 26 24 22 21 20 18 17 16 16 16 15 14
25 25 26 28 30 30 30 31 33 34 35 36 38 38 37 39 41 39 34 33 35 34 35 35 34 33 32 31 30 30 29 29 30 31 32 33 35 35 35 34 29 26 32 37 30 23 24 24 22 22 21 19 17 15 14 17 22 25 27 27 28 28 27 26 25 23 22 20 19 18 18 17 16 16
30 28 27 27 27 27 26 26 28 31 33 35 37 39 41 42 44 43 39 36 35 34 34 33 32 31 29 28 28 27 28 28 29 31 32 32 33 36 37 37 35 33 35 36 33 30 28 27 28 26 22 21 21 18 14 15 18 22 26 28 28 28 28 28 27 25 24 22 21 20 19 18 18 17
27 29 32 33 33 33 31 30 29 29 30 33 37 39 40 40 42 43 42 39 36 35 33 31 29 29 29 29 30 30 31 31 30 31 32 33 34 35 36 37 38 39 37 34 33 33 31 30 30 28 25 22 19 15 14 15 15 18 23 27 27 27 28 29 29 28 26 24 23 21 20 20 20 20
24 26 30 34 37 39 37 34 32 31 30 30 32 35 38 40 41 42 42 40 37 36 33 30 30 32 33 33 34 35 35 35 32 30 31 33 35 35 36 36 35 36 36 34 33 35 35 34 33 31 29 26 21 17 18 18 17 18 20 22 25 28 29 29 29 30 28 26 25 24 24 24 23 22
23 25 27 30 34 38 38 35 33 33 33 32 32 31 31 34 39 43 43 41 37 35 34 33 33 34 35 37 38 39 38 35 34 32 31 32 35 36 37 38 38 38 37 36 35 36 37 37 37 35 33 31 29 26 25 23 23 23 22 22 25 27 28 28 29 30 29 29 28 28 28 26 25 24
21 23 24 27 32 36 39 39 37 37 36 34 33 31 28 28 31 35 38 39 37 35 34 35 35 37 39 39 39 38 36 35 36 37 35 34 35 34 34 36 38 40 39 38 37 37 37 38 38 37 35 33 32 32 31 29 26 26 27 27 24 22 23 26 29 29 30 31 30 30 30 28 26 26
18 18 19 22 26 31 36 40 42 43 42 39 37 36 36 34 32 32 33 35 36 35 35 35 36 38 38 37 36 35 34 35 38 38 37 36 37 36 33 31 33 35 36 37 37 37 37 38 38 37 36 34 33 34 34 31 29 29 29 30 28 24 23 25 27 29 30 31 31 31 31 30 29 28
21 21 21 22 23 25 28 31 34 38 40 41 41 41 40 39 38 36 34 33 33 34 35 35 36 36 35 34 34 34 34 35 38 37 35 35 38 38 34 30 31 32 32 34 36 37 37 37 37 37 38 37 36 36 34 31 31 32 30 30 31 31 30 28 28 29 29 30 33 34 34 33 32 31
25 26 26 26 26 26 25 25 27 29 30 32 35 37 37 36 36 36 35 34 35 36 36 36 36 36 34 33 33 33 33 36 38 36 33 33 35 34 32 31 33 33 32 32 34 35 35 37 36 36 38 38 39 38 34 31 31 33 31 29 30 31 32 32 31 30 30 32 35 35 35 36 35 34
25 26 26 27 27 27 26 26 26 27 27 27 28 30 31 31 32 33 34 35 37 37 36 36 36 35 34 34 34 33 33 36 36 33 32 33 33 31 30 30 33 34 33 32 32 31 31 33 34 33 35 37 38 40 39 35 33 33 32 30 30 31 33 34 33 32 32 34 35 35 36 38 38 37
24 23 24 26 27 26 26 28 28 28 27 27 27 27 27 28 29 31 33 35 36 36 35 35 35 34 34 34 35 34 35 36 35 32 31 30 30 30 30 30 31 33 32 32 32 30 29 30 30 28 28 28 28 32 38 39 38 34 31 29 30 33 34 34 33 33 33 35 35 35 34 35 38 39
25 24 23 24 25 24 25 27 28 27 27 27 27 26 26 26 27 28 31 33 34 34 34 34 34 35 35 36 37 37 37 35 33 31 30 29 29 29 30 31 33 34 33 32 33 30 29 29 29 25 21 17 14 17 25 34 38 37 34 32 32 33 34 33 33 33 34 36 37 36 34 34 36 39
27 27 25 25 24 24 24 25 25 25 25 26 26 26 26 27 28 29 30 29 28 29 31 32 33 35 36 37 37 37 36 35 34 33 32 30 28 27 28 30 32 33 33 33 32 29 28 28 28 26 20 12 8 9 17 25 31 35 38 37 35 34 34 32 31 33 35 37 39 40 40 38 37 38
27 27 26 26 25 24 25 25 24 24 25 25 25 26 28 29 31 32 31 29 28 30 32 33 34 35 36 36 36 35 34 34 32 32 31 29 28 27 27 28 29 30 29 28 28 28 28 28 28 28 22 13 8 11 15 17 23 31 37 38 38 37 34 31 31 33 35 36 39 42 42 41 39 38
26 25 25 27 27 26 26 27 26 25 26 26 26 27 28 29 29 30 30 31 33 34 33 32 32 33 34 35 34 34 34 33 32 31 30 28 25 24 24 24 25 24 23 25 26 25 25 27 29 30 27 22 19 19 18 17 22 29 32 34 37 38 35 34 34 33 33 34 37 39 38 37 36 35
23 23 24 25 26 26 26 28 27 26 26 27 26 27 28 28 29 30 31 33 35 34 33 33 32 30 31 33 34 34 33 30 26 23 20 18 19 23 26 28 29 26 24 26 28 27 27 31 33 31 29 27 26 27 26 25 28 32 33 32 34 37 38 38 37 34 33 35 36 34 33 31 30 27
23 23 24 25 26 26 27 28 28 27 27 27 27 27 28 29 30 33 35 36 36 36 36 35 32 29 29 31 31 27 22 17 14 15 18 22 28 34 36 34 30 26 23 25 28 30 32 33 30 25 22 22 24 27 24 20 23 32 35 32 30 32 35 40 41 38 38 38 36 33 31 30 28 26
24 24 25 26 26 27 28 29 29 28 28 28 28 28 28 29 31 34 37 38 37 36 35 34 33 31 32 31 26 19 15 17 23 29 31 31 31 33 32 28 25 23 23 25 31 37 37 32 25 20 19 20 22 22 18 17 24 29 26 24 29 32 31 34 41 43 42 40 37 34 30 24 19 18
27 28 30 29 27 27 27 29 30 30 29 29 29 29 29 30 32 33 34 34 33 32 31 32 32 32 32 29 23 19 21 28 33 34 30 28 27 27 27 28 28 28 27 29 35 39 37 29 24 21 19 20 21 22 23 27 29 24 15 20 36 39 30 28 37 44 43 41 40 39 37 31 22 20
25 24 23 21 20 19 18 19 20 20 20 19 19 19 19 20 23 26 27 27 26 27 28 29 30 29 28 25 22 22 25 29 30 30 30 31 32 30 28 29 29 28 28 30 34 35 31 25 23 22 21 20 20 23 27 29 28 22 18 23 34 38 32 29 34 40 43 43 40 38 40 42 40 38
16 15 15 16 17 18 18 19 20 20 19 19 18 17 16 16 20 25 26 23 21 22 24 25 27 28 26 23 22 22 24 27 28 28 30 32 33 32 31 31 29 28 29 30 30 28 25 23 24 24 21 19 20 25 28 28 27 27 23 21 27 36 36 31 29 33 39 41 40 38 39 41 43 44
Wind_Direction
228 234 248 255 261 272 285 352 5 27 100 125 156 56 47 74 113 55 357 321 343 51 78 179 197 195 165 119 66 148 249 272 270 305 328 335 335 321 318 326 327 337 3 19 19 17 16 13 14 19 19 17 15 12 10 6 359 354 352 351 353 357 3 7 10 15 24 37 57 82 105 134 159 175
231 232 240 251 256 262 261 267 332 314 315 325 269 246 286 290 184 137 107 297 300 7 31 46 237 264 234 249 296 252 246 261 278 306 321 331 332 319 312 313 313 320 341 10 19 17 13 7 7 12 13 14 16 14 10 5 359 355 350 350 352 355 359 2 5 9 15 24 39 70 100 121 148 172
227 228 234 246 246 249 250 243 271 289 286 295 270 233 228 236 190 160 126 217 279 307 355 12 357 341 339 300 265 253 270 293 294 297 316 329 321 307 302 303 303 306 315 347 8 15 16 5 1 6 10 11 13 15 14 7 0 355 349 348 351 353 355 357 1 4 8 13 19 40 80 110 133 163
225 225 230 237 229 225 239 243 253 268 259 268 260 225 215 220 223 243 242 225 266 289 314 325 311 324 337 316 255 271 295 306 295 287 311 324 315 303 299 296 295 295 298 317 342 2 15 8 358 359 5 9 10 13 15 12 4 355 349 347 350 352 353 354 356 359 4 7 7 15 40 85 123 148
234 232 227 232 230 224 235 243 246 251 247 249 252 236 239 252 249 252 253 250 270 285 295 301 296 302 322 318 296 302 301 290 291 295 305 314 313 310 305 297 289 287 287 294 311 337 1 7 358 355 358 3 5 8 12 14 9 360 351 346 347 350 351 352 354 355 359 5 4 4 12 31 95 146
238 235 225 230 238 236 239 242 243 250 246 240 245 244 244 249 246 244 247 247 255 271 280 293 295 291 300 305 303 315 313 297 303 306 303 303 302 307 309 301 290 285 283 282 289 309 335 350 348 344 348 353 355 0 5 11 11 5 355 346 343 346 349 351 352 352 355 2 5 3 3 8 21 122
232 233 230 232 234 235 240 241 241 245 241 239 250 253 244 239 237 237 242 243 241 250 263 276 284 283 287 291 291 297 300 296 297 298 298 298 293 295 302 300 292 289 285 280 279 292 309 323 330 328 330 339 344 349 356 4 9 7 0 351 342 340 345 349 349 350 352 358 5 5 1 2 3 7
230 231 233 235 234 233 237 241 243 240 237 242 254 261 254 246 244 240 242 247 244 243 253 265 276 283 288 290 291 294 296 296 294 290 292 298 293 289 290 289 290 291 286 281 281 288 294 299 310 312 311 317 323 330 343 353 0 4 1 355 344 337 340 346 347 347 349 354 3 6 4 4 3 1
232 234 233 234 234 234 235 242 246 238 235 246 255 260 260 258 252 244 242 249 245 243 254 267 276 285 290 292 293 295 296 297 295 287 281 284 285 288 288 283 278 276 277 280 283 288 289 288 295 298 298 302 304 303 317 334 345 355 358 357 349 336 335 341 344 344 345 350 357 2 6 8 7 4
235 238 238 238 238 236 235 240 242 238 239 249 254 257 260 261 259 255 254 257 257 259 266 272 277 281 285 288 292 297 297 291 289 286 281 279 281 290 292 278 264 262 271 281 286 288 286 283 286 288 286 290 293 291 291 303 322 337 347 356 355 341 333 334 338 340 341 344 350 356 4 10 10 8
240 241 242 242 242 241 241 242 242 241 244 248 248 251 257 261 264 267 266 264 266 268 266 265 268 274 280 284 288 297 301 292 285 281 276 274 278 287 287 269 258 257 266 276 279 279 278 277 279 280 277 279 286 287 283 284 294 311 328 347 356 347 336 330 329 332 336 338 341 345 355 4 6 6
242 244 244 245 245 244 244 246 246 245 245 246 248 248 250 253 257 262 263 263 265 264 260 257 260 267 273 276 278 286 291 288 282 278 274 275 280 285 281 263 254 258 267 272 273 272 271 272 274 275 273 274 278 280 279 276 275 278 294 328 350 348 339 329 322 323 328 330 331 334 343 355 357 358
243 245 246 248 250 250 248 248 248 247 245 245 247 247 246 246 248 253 256 257 257 257 258 260 262 264 264 266 271 277 279 279 280 282 281 277 279 281 272 251 247 263 270 267 267 271 273 273 273 271 272 274 275 274 273 272 271 266 265 288 329 340 335 327 317 315 318 318 316 319 328 341 347 348
244 246 246 249 252 254 255 254 252 250 248 245 245 245 246 246 246 247 249 250 251 251 252 255 259 262 263 264 267 269 273 276 279 281 280 276 276 271 255 244 252 262 262 257 262 271 274 272 269 268 273 277 276 273 271 270 268 261 256 263 292 319 324 320 315 311 309 307 303 304 314 329 338 339
245 246 247 249 250 252 255 257 259 258 254 251 249 246 245 246 246 246 246 247 248 247 248 250 253 255 260 264 265 265 269 272 273 277 277 274 271 262 248 247 254 254 254 261 269 272 271 267 266 270 276 280 279 278 276 271 263 256 254 255 267 292 307 308 309 307 299 294 293 294 301 316 328 333
243 245 246 248 248 249 252 256 262 264 261 257 254 251 248 247 247 248 247 247 248 247 247 249 251 252 256 261 264 263 264 267 270 273 273 268 264 258 248 243 248 256 267 274 275 276 274 266 260 266 276 280 280 283 283 274 261 251 250 251 255 270 288 292 296 298 290 285 284 285 292 305 315 323
246 246 246 248 249 250 251 254 259 264 265 263 259 255 251 249 249 249 250 250 251 250 250 250 253 255 255 257 260 261 261 262 265 267 269 269 267 263 254 252 262 276 282 278 275 277 278 270 257 262 276 281 279 280 282 277 264 251 246 247 250 258 272 277 279 284 283 277 274 275 282 292 299 305
250 251 250 250 252 253 254 256 258 261 266 268 267 260 254 251 251 251 252 253 252 252 252 252 254 258 257 257 261 264 262 259 260 262 265 267 268 268 269 273 278 281 279 276 272 271 275 274 266 268 276 279 276 276 279 277 267 253 245 245 247 252 261 265 262 267 274 272 268 266 271 279 284 283
250 252 254 255 256 257 258 258 258 259 262 266 270 269 263 259 257 255 255 256 256 256 256 256 258 261 262 261 263 265 263 259 259 261 263 267 272 276 277 277 277 277 275 272 263 259 268 273 272 274 279 280 277 275 273 271 264 252 244 244 244 245 252 254 249 254 264 267 264 261 262 268 272 267
249 251 253 256 258 259 259 260 259 259 259 260 263 266 267 268 265 262 262 261 260 261 261 262 264 267 268 268 268 269 268 264 263 262 263 267 271 273 274 273 272 273 273 270 261 256 265 272 271 274 279 278 275 273 269 266 261 250 243 242 241 240 244 245 240 244 255 262 262 259 257 259 263 260
248 249 250 253 256 259 261 263 264 263 260 258 258 259 261 264 265 266 267 266 264 262 262 264 268 271 273 272 271 271 271 270 267 262 259 263 265 266 267 267 268 270 271 272 269 260 263 270 270 273 278 276 271 268 266 264 260 250 242 240 240 239 240 239 238 239 246 254 257 257 255 253 255 254
253 250 250 251 253 256 260 263 266 268 265 261 259 257 257 257 258 260 263 264 265 264 263 264 265 267 269 270 270 270 269 270 268 261 258 261 261 259 259 260 266 271 271 272 269 258 258 264 266 270 275 272 263 258 257 257 256 248 240 236 236 237 237 237 237 238 242 248 251 253 253 249 249 249
261 256 253 252 253 255 258 260 263 266 267 265 263 259 256 254 255 257 258 258 260 262 262 264 264 265 267 269 271 271 268 268 266 262 261 261 258 254 254 257 260 265 270 271 264 249 253 260 263 266 269 263 256 251 244 243 245 243 240 236 235 236 237 236 235 236 238 242 245 248 248 246 246 246
265 263 259 256 255 257 260 262 263 265 265 265 265 261 256 254 257 260 259 257 258 259 260 262 263 265 268 271 272 273 271 268 265 262 262 260 256 252 252 255 253 248 261 269 264 246 251 260 263 265 266 262 259 253 243 238 237 236 237 238 239 239 237 236 236 236 237 239 241 242 243 243 242 243
253 255 257 257 257 258 261 265 267 268 267 267 265 262 258 257 260 262 260 259 260 260 260 261 262 264 266 268 269 270 268 265 262 260 259 258 257 253 250 251 250 247 258 269 266 253 253 258 260 263 265 264 264 264 254 239 233 233 235 237 240 241 240 239 239 238 238 239 239 239 239 239 239 242
252 252 253 254 256 257 259 263 267 269 269 267 265 263 261 261 262 262 260 260 261 260 260 260 260 260 260 261 264 266 266 265 262 259 257 256 256 255 253 251 249 248 258 270 270 260 255 256 258 259 257 257 262 264 256 242 236 234 232 233 238 241 242 242 241 240 240 240 241 241 239 238 238 238
263 260 257 256 258 259 260 263 266 268 269 267 264 263 262 262 262 262 260 258 257 258 259 259 258 258 258 259 261 263 263 264 262 260 258 257 256 256 256 255 253 253 259 267 268 263 258 256 257 257 251 250 254 255 252 252 247 237 233 234 236 238 240 242 242 242 242 241 241 240 236 234 235 235
269 268 265 263 261 260 260 262 262 264 267 267 264 263 263 262 261 260 258 256 255 255 255 256 257 258 258 259 260 260 260 261 262 262 261 260 259 258 257 257 256 255 257 260 261 260 258 254 254 254 251 249 249 249 253 258 257 251 244 235 230 232 236 240 242 243 242 240 239 235 232 233 235 233
269 270 270 269 266 263 262 261 260 261 265 267 265 264 264 262 260 259 257 255 253 252 250 251 252 255 257 259 260 261 262 261 261 261 260 259 259 257 257 257 257 256 256 256 257 258 256 254 254 254 252 251 251 252 254 257 257 256 251 239 234 236 237 237 240 243 241 239 236 233 234 237 238 235
274 273 272 271 270 268 265 262 261 263 266 267 265 263 263 262 261 260 259 256 252 249 249 249 250 252 256 258 260 262 262 261 260 259 258 259 258 256 253 252 252 253 255 255 256 256 255 255 256 254 252 252 251 251 252 253 254 254 252 247 244 243 238 235 237 240 240 240 237 235 236 239 240 238
286 283 281 277 275 272 269 265 263 263 264 265 265 266 268 268 265 265 266 263 257 253 252 252 252 254 256 258 259 260 259 259 260 260 258 259 259 258 256 254 252 253 255 257 258 258 257 256 256 253 250 250 251 251 252 251 249 250 251 248 245 244 245 240 235 235 239 241 239 236 236 236 237 236
297 294 295 294 291 287 282 276 271 267 265 264 265 266 268 270 270 271 272 268 263 259 257 256 256 257 257 256 257 258 257 258 260 260 258 258 258 258 258 257 257 257 258 258 259 259 259 258 256 253 251 249 250 251 251 250 249 249 249 248 245 246 249 246 241 239 238 236 236 236 236 236 235 233
290 289 291 293 293 292 290 286 280 274 269 266 264 263 264 266 269 270 269 265 263 263 260 257 256 255 255 255 256 256 256 257 258 258 256 256 258 258 256 255 257 258 258 257 257 256 257 257 256 255 254 253 253 252 249 247 249 249 247 246 244 243 244 245 245 242 235 229 230 233 234 236 236 234
283 283 283 283 283 283 284 283 280 278 275 271 267 264 263 262 262 263 261 260 261 261 259 256 255 253 252 253 254 254 254 256 258 257 255 254 254 254 252 252 254 255 255 256 255 254 254 256 256 256 254 253 253 252 248 245 248 251 250 246 243 243 244 244 242 238 233 231 230 229 229 233 235 233
280 278 276 275 275 275 276 276 277 278 277 274 270 267 263 259 256 256 256 257 258 257 255 255 254 252 250 250 251 252 253 255 257 256 254 253 252 251 250 251 253 255 255 255 255 253 252 252 252 251 250 248 250 252 249 245 246 250 251 248 245 244 244 244 241 236 231 229 227 225 226 230 233 232
279 275 271 268 269 270 270 271 274 275 274 272 270 269 267 264 260 257 257 257 256 253 252 252 252 251 249 248 250 251 252 253 255 254 252 250 248 248 249 249 252 254 254 255 255 253 251 249 245 243 245 246 246 252 251 246 244 247 247 247 247 245 243 243 241 235 230 225 221 221 225 230 232 232
278 276 272 268 268 267 267 268 271 273 273 273 274 273 273 273 271 268 266 262 256 250 250 250 250 251 251 249 249 251 251 251 251 250 249 248 247 247 248 250 252 254 254 255 257 255 251 248 242 237 239 244 246 255 256 250 248 248 246 245 245 246 244 240 234 230 229 226 222 223 227 231 234 236
277 276 274 272 271 270 269 270 270 271 273 276 277 278 278 277 277 276 271 264 257 253 252 250 248 249 250 249 249 249 250 250 249 247 246 245 243 243 245 248 252 256 258 261 263 259 253 250 245 238 235 236 243 255 257 252 248 249 248 245 244 245 243 236 230 229 228 226 226 229 231 232 236 239
278 278 278 277 276 275 274 274 273 271 272 273 274 275 277 278 278 276 270 264 260 259 258 256 253 252 251 251 250 248 247 247 245 244 244 243 242 245 251 256 261 267 271 273 271 265 256 251 249 245 241 240 243 254 268 273 265 260 257 251 246 243 240 235 232 232 230 228 230 232 232 234 238 242
283 284 284 284 283 281 280 279 278 275 275 275 274 274 275 275 274 272 270 268 268 268 266 265 263 260 259 257 253 249 247 246 246 248 250 252 252 251 249 250 251 251 253 256 259 257 251 248 249 248 248 251 258 268 277 282 278 272 268 261 253 247 242 238 236 234 233 233 232 229 227 228 230 232
284 283 284 284 283 282 281 282 281 279 278 279 278 277 275 273 271 269 269 269 270 270 270 270 269 268 266 263 257 252 251 254 258 255 246 239 240 240 239 240 242 242 242 248 254 255 253 253 253 254 258 269 275 274 271 269 268 267 266 265 264 257 247 243 241 239 239 237 230 223 223 224 223 221
293 290 289 288 285 283 282 282 282 280 280 280 279 278 276 274 271 270 270 269 268 268 268 270 271 271 270 268 263 254 248 248 249 247 241 235 235 239 241 243 246 248 247 248 253 256 258 260 261 265 274 279 274 265 256 248 250 255 262 270 271 265 253 244 241 240 241 239 231 224 221 214 207 211
302 298 296 293 290 288 286 284 282 282 281 280 279 278 276 273 270 269 268 266 267 268 269 271 272 271 270 269 263 251 248 248 245 243 243 244 243 243 243 244 245 246 246 247 253 259 262 264 265 267 269 267 256 246 245 251 255 259 266 268 266 265 260 249 241 237 236 238 238 237 234 227 220 222
299 301 303 306 308 311 310 306 303 303 302 301 301 299 292 280 273 272 272 271 272 275 277 277 277 276 276 276 268 258 258 257 249 240 240 244 244 241 242 245 247 247 247 249 255 260 262 266 268 262 254 247 240 235 240 251 261 265 261 258 264 266 263 253 243 236 233 235 237 239 239 238 239 242
308 317 322 326 332 335 334 331 330 329 326 323 324 324 317 302 291 288 286 282 281 282 282 280 280 280 283 286 281 270 266 264 258 248 244 245 245 244 245 246 246 245 246 248 252 258 262 265 265 260 252 247 242 236 236 242 252 257 255 255 262 265 262 255 246 239 235 233 233 233 234 235 237 240